Home   Weather   Vientiane   Past weeks

Flag for Laos Past Weather in Vientiane, Laos — Yesterday and Last 2 Weeks

Now
88 °F

Scattered clouds.


Feels Like: 91 °F
Forecast: 78 / 93 °F
Wind: 2 mph from North

Location: Vientiane Airport

Current Time: Apr 29, 2017 at 4:44:55 pm

Latest Report: Apr 29, 2017 at 4:00 pm


Visibility: 5 mi

Pressure: 29.83 "Hg

Humidity: 52%

Dew Point: 68 °F

Location of VientianeLocation

Past Weather in Vientiane — Graph

°F

Vientiane Temperature Yesterday

Maximum temperature yesterday: 84 °F (at 11:00 am)
Minimum temperature yesterday: 77 °F (at 9:30 pm)
Average temperature yesterday: 81 °F

High & Low Weather Summary for the Past Weeks

 TemperatureHumidityPressure
High100 °F (Apr 21, 2:30 pm)100% (Apr 26, 6:00 am)29.95 "Hg (Apr 26, 6:00 am)
Low73 °F (Apr 22, 6:00 am)27% (Apr 21, 2:30 pm)29.65 "Hg (Apr 19, 4:00 pm)
Average85 °F65%29.80 "Hg
* Reported Apr 14 3:00 pm — Apr 29 3:30 pm, Vientiane, Weather by CustomWeather, © 2017

Note: Actual official high and low records may vary slightly from our data, if they occured in-between our weather recording intervals... More about our weather records

Advertising

Vientiane Weather History for the Previous 24 Hours

Scroll right to see more
 ConditionsComfort  
Time TempWeatherWind HumidityBarometerVisibility
3:30 pm
Sat, Apr 29
88 °FBroken clouds.2 mph52%29.86 "Hg4 mi
2:30 pm88 °FBroken clouds.No wind55%29.89 "Hg4 mi
2:00 pm86 °FBroken clouds.5 mph59%29.89 "Hg4 mi
1:30 pm84 °FPartly sunny.2 mph58%29.92 "Hg4 mi
1:00 pm84 °FPartly sunny.7 mph62%29.92 "Hg4 mi
12:30 pm82 °FPartly sunny.7 mph66%29.95 "Hg4 mi
12:00 pm82 °FDrizzle. Partly sunny.7 mph70%29.95 "Hg4 mi
11:30 am82 °FBroken clouds.5 mph66%29.95 "Hg4 mi
11:00 am82 °FBroken clouds.9 mph66%29.95 "Hg4 mi
10:30 am84 °FBroken clouds.7 mph66%29.95 "Hg4 mi
10:00 am82 °FBroken clouds.7 mph66%29.95 "Hg4 mi
9:30 am81 °FBroken clouds.7 mph79%29.95 "Hg4 mi
9:00 am79 °FBroken clouds.7 mph84%29.95 "Hg4 mi
8:30 am77 °FFog.2 mph89%29.95 "Hg3 mi
8:00 am75 °FDrizzle. More clouds than sun.5 mph94%29.95 "Hg3 mi
7:30 am75 °FDrizzle. Broken clouds.2 mph89%29.95 "Hg3 mi
7:00 am77 °FDrizzle. Broken clouds.5 mph83%29.95 "Hg3 mi
6:30 am77 °FFog.2 mph89%29.92 "Hg3 mi
6:00 am75 °FFog.2 mph94%29.92 "Hg2 mi
11:30 pm
Fri, Apr 28
79 °FFog.2 mph79%29.92 "Hg2 mi
11:00 pm79 °FFog.2 mph79%29.92 "Hg2 mi
10:30 pm79 °FFog.5 mph79%29.92 "Hg2 mi
10:00 pm79 °FFog.2 mph74%29.89 "Hg2 mi
9:30 pm77 °FFog.2 mph83%29.89 "Hg2 mi
9:00 pm79 °FFog.5 mph74%29.89 "Hg2 mi
8:00 pm79 °FFog.2 mph74%29.86 "Hg2 mi
7:30 pm79 °FFog.5 mph70%29.83 "Hg2 mi
7:00 pm81 °FFog.5 mph66%29.86 "Hg2 mi
6:30 pm81 °FFog.7 mph66%29.83 "Hg3 mi
6:00 pm82 °FFog.7 mph62%29.83 "Hg3 mi
5:30 pm82 °FPartly sunny.7 mph66%29.83 "Hg4 mi
5:00 pm82 °FPartly sunny.7 mph66%29.83 "Hg4 mi
4:30 pm82 °FMore clouds than sun.9 mph66%29.83 "Hg4 mi
4:00 pm84 °FMore clouds than sun.5 mph66%29.83 "Hg4 mi
Weather by CustomWeather, © 2017

See weather overviewHow to use our weather pages